When you browse on this site, cookies collect data to enhance your experience and personalize the content and advertising you see.
Visit our Privacy Policy to learn more. By continuing to use the site, you agree to this use of cookies and data.
  • In Hungary
  • List of Countries
  • For 7 days
  • Water Temperature
  • Weather Map
  • News
  • Weather Widgets
  • user-avatar
    Login

    Hourly Weather Nowa Wies Leborska

    Today, 13 November, Wednesday

    Time Temperature Precipitation Wind Pressure Humidity
    00:00 +6°C° 0.2 mm 1 mps 752 mmHg 93%
    01:00 +6°C° 0.2 mm 1 mps 752 mmHg 93%
    02:00 +6°C° 0.1 mm 1 mps 751 mmHg 93%
    03:00 +7°C° 0.1 mm 1 mps 751 mmHg 93%
    04:00 +7°C° 0.1 mm 1 mps 750 mmHg 93%
    05:00 +7°C° 0.2 mm 1 mps 750 mmHg 94%
    06:00 +7°C° 0.2 mm 1 mps 750 mmHg 95%
    07:00 +7°C° 0.2 mm 1 mps 750 mmHg 96%
    08:00 +7°C° 0 mm 1 mps 749 mmHg 96%
    09:00 +7°C° 0 mm 1 mps 749 mmHg 96%
    10:00 +8°C° 0 mm 1 mps 749 mmHg 96%
    11:00 +8°C° 0.7 mm 1 mps 748 mmHg 96%
    12:00 +8°C° 0.7 mm 1 mps 748 mmHg 97%
    13:00 +8°C° 0.7 mm 1 mps 748 mmHg 98%
    14:00 +8°C° 1.4 mm 1 mps 747 mmHg 98%
    15:00 +8°C° 1.4 mm 1 mps 747 mmHg 98%
    16:00 +8°C° 1.4 mm 1 mps 747 mmHg 98%
    17:00 +8°C° 0.5 mm 1 mps 747 mmHg 98%
    18:00 +8°C° 0.5 mm 1 mps 747 mmHg 98%
    19:00 +8°C° 0.5 mm 1 mps 748 mmHg 98%
    20:00 +8°C° 0.1 mm 1 mps 748 mmHg 98%
    21:00 +8°C° 0.1 mm 1 mps 748 mmHg 98%
    22:00 +8°C° 0.1 mm 1 mps 748 mmHg 97%
    23:00 +7°C° 0.9 mm 2 mps 748 mmHg 97%

    Tomorrow, 14 November, Thursday

    Time Temperature Precipitation Wind Pressure Humidity
    00:00 +7°C° 0.9 mm 3 mps 748 mmHg 97%
    01:00 +7°C° 0.9 mm 3 mps 748 mmHg 97%
    02:00 +6°C° 1.9 mm 4 mps 748 mmHg 97%
    03:00 +6°C° 1.9 mm 4 mps 748 mmHg 96%
    04:00 +6°C° 1.9 mm 4 mps 748 mmHg 96%
    05:00 +6°C° 1.3 mm 4 mps 748 mmHg 96%
    06:00 +6°C° 1.3 mm 4 mps 749 mmHg 95%
    07:00 +5°C° 1.3 mm 4 mps 750 mmHg 95%
    08:00 +5°C° 0.3 mm 4 mps 751 mmHg 94%
    09:00 +5°C° 0.3 mm 3 mps 751 mmHg 93%
    10:00 +5°C° 0.3 mm 3 mps 752 mmHg 93%
    11:00 +6°C° 0.2 mm 2 mps 753 mmHg 91%
    12:00 +6°C° 0.2 mm 2 mps 754 mmHg 89%
    13:00 +6°C° 0.2 mm 2 mps 754 mmHg 88%
    14:00 +7°C° 0.1 mm 1 mps 755 mmHg 87%
    15:00 +7°C° 0.1 mm 1 mps 755 mmHg 87%
    16:00 +7°C° 0.1 mm 1 mps 756 mmHg 86%
    17:00 +7°C° 0 mm 1 mps 756 mmHg 86%
    18:00 +7°C° 0 mm 1 mps 757 mmHg 86%
    19:00 +6°C° 0 mm 1 mps 757 mmHg 86%
    20:00 +6°C° 0 mm 1 mps 757 mmHg 87%
    21:00 +6°C° 0 mm 1 mps 758 mmHg 88%
    22:00 +5°C° 0 mm 1 mps 758 mmHg 90%
    23:00 +5°C° 0 mm 1 mps 758 mmHg 90%

    Day after tomorrow, 15 November, Friday

    Time Temperature Precipitation Wind Pressure Humidity
    00:00 +4°C° 0 mm 2 mps 758 mmHg 90%
    01:00 +4°C° 0 mm 2 mps 758 mmHg 91%
    02:00 +4°C° 0 mm 2 mps 758 mmHg 90%
    03:00 +3°C° 0 mm 3 mps 758 mmHg 90%
    04:00 +3°C° 0 mm 3 mps 758 mmHg 90%
    05:00 +3°C° 0 mm 4 mps 758 mmHg 90%
    06:00 +4°C° 0 mm 4 mps 758 mmHg 90%
    07:00 +3°C° 0 mm 5 mps 757 mmHg 90%
    08:00 +8°C° 0 mm 6 mps 756 mmHg 93%
    09:00 +8°C° 0 mm 6 mps 756 mmHg 93%
    10:00 +9°C° 0 mm 6 mps 756 mmHg 92%
    11:00 +10°C° 0 mm 6 mps 756 mmHg 90%
    12:00 +10°C° 0 mm 6 mps 756 mmHg 88%
    13:00 +11°C° 0 mm 6 mps 756 mmHg 86%
    14:00 +11°C° 0 mm 6 mps 755 mmHg 87%
    15:00 +10°C° 0 mm 6 mps 755 mmHg 88%
    16:00 +10°C° 0 mm 6 mps 755 mmHg 89%
    17:00 +10°C° 0 mm 6 mps 755 mmHg 89%
    18:00 +10°C° 0 mm 6 mps 755 mmHg 88%
    19:00 +10°C° 0 mm 6 mps 755 mmHg 88%
    20:00 +10°C° 0 mm 6 mps 755 mmHg 88%
    21:00 +10°C° 0 mm 6 mps 755 mmHg 89%
    22:00 +9°C° 0 mm 5 mps 755 mmHg 89%
    23:00 +9°C° 0 mm 5 mps 755 mmHg 90%

    16 November, Saturday

    Time Temperature Precipitation Wind Pressure Humidity
    00:00 +9°C° 0 mm 5 mps 755 mmHg 90%
    01:00 +9°C° 0 mm 5 mps 755 mmHg 90%
    02:00 +9°C° 0 mm 5 mps 755 mmHg 90%
    03:00 +9°C° 0 mm 5 mps 755 mmHg 89%
    04:00 +9°C° 0 mm 5 mps 754 mmHg 89%
    05:00 +9°C° 0 mm 5 mps 754 mmHg 88%
    06:00 +9°C° 0 mm 5 mps 754 mmHg 88%
    07:00 +9°C° 0 mm 6 mps 754 mmHg 87%
    08:00 +9°C° 0 mm 6 mps 754 mmHg 83%
    09:00 +10°C° 0 mm 6 mps 754 mmHg 79%
    10:00 +11°C° 0 mm 7 mps 754 mmHg 75%
    11:00 +11°C° 0 mm 6 mps 755 mmHg 75%
    12:00 +13°C° 0 mm 5 mps 755 mmHg 74%
    13:00 +13°C° 0 mm 5 mps 755 mmHg 74%
    14:00 +12°C° 0 mm 5 mps 756 mmHg 76%
    15:00 +11°C° 0 mm 4 mps 757 mmHg 78%
    16:00 +10°C° 0 mm 4 mps 757 mmHg 80%
    17:00 +8°C° 0 mm 4 mps 758 mmHg 80%
    18:00 +8°C° 0 mm 3 mps 759 mmHg 80%
    19:00 +8°C° 0 mm 2 mps 759 mmHg 80%
    20:00 +7°C° 0 mm 2 mps 760 mmHg 81%
    21:00 +7°C° 0 mm 2 mps 760 mmHg 83%
    22:00 +7°C° 0 mm 1 mps 761 mmHg 85%
    23:00 +7°C° 0 mm 1 mps 761 mmHg 85%

    17 November, Sunday

    Time Temperature Precipitation Wind Pressure Humidity
    00:00 +7°C° 0 mm 1 mps 761 mmHg 85%
    01:00 +7°C° 0 mm 1 mps 761 mmHg 84%
    02:00 +6°C° 0 mm 2 mps 761 mmHg 86%
    03:00 +6°C° 0 mm 2 mps 761 mmHg 88%
    04:00 +5°C° 0 mm 3 mps 761 mmHg 90%
    05:00 +7°C° 0 mm 3 mps 760 mmHg 91%
    06:00 +6°C° 0 mm 4 mps 760 mmHg 93%
    07:00 +7°C° 0 mm 4 mps 760 mmHg 94%
    08:00 +8°C° 0 mm 5 mps 760 mmHg 92%
    09:00 +8°C° 0 mm 5 mps 759 mmHg 91%
    10:00 +9°C° 0 mm 5 mps 759 mmHg 89%
    11:00 +9°C° 0 mm 5 mps 758 mmHg 86%
    12:00 +10°C° 0 mm 5 mps 758 mmHg 83%
    13:00 +10°C° 0 mm 5 mps 757 mmHg 80%
    14:00 +10°C° 0 mm 5 mps 757 mmHg 82%
    15:00 +9°C° 0 mm 5 mps 757 mmHg 84%
    16:00 +9°C° 0 mm 5 mps 756 mmHg 86%
    17:00 +8°C° 0 mm 5 mps 756 mmHg 86%
    18:00 +8°C° 0 mm 5 mps 756 mmHg 86%
    19:00 +7°C° 0 mm 5 mps 756 mmHg 86%
    20:00 +7°C° 0 mm 5 mps 756 mmHg 86%
    21:00 +7°C° 0 mm 5 mps 756 mmHg 87%
    22:00 +7°C° 0 mm 5 mps 756 mmHg 87%
    23:00 +7°C° 0 mm 4 mps 756 mmHg 88%

    18 November, Monday

    Time Temperature Precipitation Wind Pressure Humidity
    00:00 +6°C° 0 mm 4 mps 756 mmHg 89%
    01:00 +6°C° 0 mm 4 mps 756 mmHg 90%
    02:00 +6°C° 0 mm 4 mps 755 mmHg 89%
    03:00 +6°C° 0 mm 4 mps 755 mmHg 88%
    04:00 +5°C° 0 mm 4 mps 755 mmHg 87%
    05:00 +5°C° 0 mm 5 mps 755 mmHg 87%
    06:00 +5°C° 0 mm 5 mps 755 mmHg 87%
    07:00 +5°C° 0 mm 5 mps 755 mmHg 87%
    08:00 +5°C° 0 mm 5 mps 755 mmHg 85%
    09:00 +6°C° 0 mm 5 mps 755 mmHg 84%
    10:00 +6°C° 0 mm 5 mps 755 mmHg 82%
    11:00 +7°C° 0 mm 5 mps 755 mmHg 79%
    12:00 +8°C° 0 mm 5 mps 755 mmHg 76%
    13:00 +9°C° 0 mm 5 mps 755 mmHg 73%
    14:00 +8°C° 0 mm 5 mps 755 mmHg 76%
    15:00 +8°C° 0 mm 5 mps 755 mmHg 79%
    16:00 +7°C° 0 mm 5 mps 755 mmHg 83%
    17:00 +7°C° 0 mm 4 mps 755 mmHg 83%
    18:00 +7°C° 0 mm 4 mps 755 mmHg 83%
    19:00 +7°C° 0 mm 4 mps 755 mmHg 84%
    20:00 +7°C° 0 mm 5 mps 756 mmHg 84%
    21:00 +7°C° 0 mm 5 mps 756 mmHg 85%
    22:00 +7°C° 0 mm 5 mps 756 mmHg 86%
    23:00 +7°C° 0 mm 5 mps 756 mmHg 86%
    Show more